Regional Weather Roundup
Issued by NWS

Home | Current Version | Previous Version | Text Only | Print | Product List | Glossary On
Versions: 1 2 3 4 5 6 7 8 9 10 11 12 13 14 15 16 17 18 19 20 21 22 23 24 25 26 27 28 29 30 31 32 33 34 35 36 37 38 39 40 41 42 43 44 45 46 47 48 49
000
ASUS42 KTBW 101510
RWRFL
FLORIDA REGIONAL WEATHER ROUNDUP
NATIONAL WEATHER SERVICE TAMPA BAY RUSKIN FL
1100 AM EDT THU JUL 10 2014

NOTE: "FAIR" INDICATES FEW OR NO CLOUDS BELOW 12,000 FEET WITH NO
SIGNIFICANT WEATHER AND/OR OBSTRUCTIONS TO VISIBILITY.


FLZ001>010-012>015-112-114-115-101600-
PANHANDLE FLORIDA

CITY           SKY/WX    TMP DP  RH WIND       PRES   REMARKS
PENSACOLA      SUNNY     86  69  56 NW9       30.09S
PENSACOLA NAS  MOSUNNY   87  71  58 NW10      30.09S
MILTON NAS     MOSUNNY   83  71  67 NW5       30.10S
CRESTVIEW      SUNNY     86  71  60 NW7       30.11S
DUKE FIELD     MOSUNNY   84  73  68 NW5       30.10S
VALPARAISO     MOSUNNY   85  73  65 W8        30.09S
MARY ESTHER    MOSUNNY   86  69  56 W6        30.09R
TRI COUNTY     PTSUNNY   84  73  69 W5        30.11S
PANAMA CITY    FAIR      86  72  62 SW3       30.09S
TYNDALL AFB    MOSUNNY   85  74  70 VRB7      30.11S
APALACHICOLA   PTSUNNY   85  75  72 S6        30.10F

STATION/POSITION SKY/WX   TEMP    WIND        PRES    WAVE   SWELL
                          AIR SEA DIR/SP/G            HT/PER HT/PER
                          (F)     (DEG/KT/KT) (MB)    (FT/S) (FT/S)
30.1N   87.6W              81 83  300/ 10/ 12 1019.2R   1/ 4
29.2N   88.2W              83 86  280/  8/  8 1019.6R
28.8N   86.0W              84 85  250/  2/  4 1020.2R   1/ 3
PANAMA CITY BEAC           81 81  250/  6/  6 1019.3R
CAPE SAN BLAS    NOT AVBL
TOWER C                    80     180/  2/  2 1019.9R
28.5N   84.5W              81 84  240/  6/  6 1020.4R   1/ 8

$$
FLZ011-016>038-118-127-128-134-139-239-101600-
NORTH FLORIDA

CITY           SKY/WX    TMP DP  RH WIND       PRES   REMARKS
MARIANNA       MOSUNNY   85  73  67 VRB5      30.10S
TALLAHASSEE    PTSUNNY   87  71  58 CALM      30.11S
PERRY          PTSUNNY   84  72  65 NW5       30.13S
CROSS CITY       N/A     76  70  82 NW18G25   30.14R
GAINESVILLE    MOSUNNY   83  75  77 VRB7      30.14S
MAYPORT NAS    PTSUNNY   88  70  55 SW6       30.12S
JACKSONVILLE   PTSUNNY   85  73  67 SW6       30.12S
JAX NAS        PTSUNNY   87  73  62 VRB6      30.13S
JAX CRAIG      PTSUNNY   87  73  62 W6        30.13R
JAX CECIL      MOSUNNY   86  75  70 CALM      30.13R HX  95
FERNANDINA BEA FAIR      88  70  55 SW6       30.11S
ST AUGUSTINE   MOSUNNY   90  73  57 VRB3      30.14R HX  98

STATION/POSITION SKY/WX   TEMP    WIND        PRES    WAVE   SWELL
                          AIR SEA DIR/SP/G            HT/PER HT/PER
                          (F)     (DEG/KT/KT) (MB)    (FT/S) (FT/S)
SHELL POINT                81     300/  1/  2   N/A
KEATON BEACH               76     130/  4/  5 1020.7R
CEDAR KEY                  78     270/  4/  6 1021.4R
FERNANDINA                 83 85  220/  5/  8 1019.6S
30.7N   81.3W                 83                N/A     2/10
MAYPORT                    84 84  230/  4/  5   N/A
31.4N   80.9W              82 84  200/  8/ 10 1019.9R   2/ 9   2/ 9
ST AUGUSTINE               82      90/  6/  7 1021.3R

$$
FLZ040-043>046-052-053-057-058-063-144-101600-
INTERIOR CENTRAL FLORIDA

CITY           SKY/WX    TMP DP  RH WIND       PRES   REMARKS
OCALA          MOSUNNY   75  66  73 CALM      30.15F FOG
LEESBURG       SUNNY     85  73  67 S3        30.15S
SANFORD        SUNNY     85  73  67 CALM      30.14S
ORLANDO EXEC   SUNNY     84  75  74 S3        30.14
ORLANDO INTL   MOSUNNY   84  72  67 S3        30.14S
KISSIMMEE      MOSUNNY   84  75  74 S3        30.15S
WINTER HAVEN   SUNNY     85  71  63 S5        30.16S
LAKELAND       PTSUNNY   86  72  62 CALM      30.14F
BARTOW         PTSUNNY   84  73  70 CALM      30.15S
OKEECHOBEE     SUNNY     82  73  74 MISG      30.15R

$$
FLZ041-047-054-059-064-141-147-101600-
EAST CENTRAL FLORIDA

CITY           SKY/WX    TMP DP  RH WIND       PRES   REMARKS
ORMOND BEACH   MOSUNNY   84  72  65 E7        30.14R
DAYTONA BEACH  MOSUNNY   86  72  62 CALM      30.14S
DELAND           N/A    N/A N/A N/A MISG        N/A
NEW SMYRNA BEA MOSUNNY   86  73  66 SW6       30.14S
JFK SPACE CTR  SUNNY     83  74  75 VRB3      30.15R
TITUSVILLE     SUNNY     82  72  69 CALM      30.15R
CAPE CANAVERAL SUNNY     84  73  69 W5        30.14R
PATRICK AFB    SUNNY     84  74  71 VRB2      30.15R
MELBOURNE      SUNNY     86  70  58 VRB5      30.14S
VERO BEACH     MOSUNNY   83  75  77 S9        30.14R
FT PIERCE      MOSUNNY   83  72  69 S6        30.14R
STUART         PTSUNNY   84  75  74 SE6       30.15R

STATION/POSITION SKY/WX   TEMP    WIND        PRES    WAVE   SWELL
                          AIR SEA DIR/SP/G            HT/PER HT/PER
                          (F)     (DEG/KT/KT) (MB)    (FT/S) (FT/S)
28.5N   80.2W              80 83  220/  6/  8 1020.9R
28.9N   78.5W              82 83  190/  8/ 10 1021.8R   3/ 9   2/ 9
TRIDENT PIER               83 85  200/  4/  6 1020.4R
28.4N   80.5W                 84                N/A     1/ 9
27.6N   80.2W                 83                N/A     1/ 9

$$
FLZ050-056-061-142-242-148-248-149-249-151-251-155-255-
160-260-101600-
WEST CENTRAL FLORIDA

CITY           SKY/WX    TMP DP  RH WIND       PRES   REMARKS
CRYSTAL RIVER  CLOUDY    79  72  78 CALM      30.14S
INVERNESS      FAIR      82  70  65 CALM      30.14S
BROOKSVILLE    PTSUNNY   86  71  60 CALM      30.15S
ZEPHYRHILLS    FAIR      86  70  58 CALM      30.15S
CLEARWATER     MOSUNNY   85  75  72 NE6       30.14R
TAMPA INTL     PTSUNNY   85  73  67 SW8       30.14S
TAMPA EXEC       N/A    N/A N/A N/A MISG        N/A
PLANT CITY     SUNNY     88  73  62 SE3       30.16S HX  96
MACDILL AFB    MOSUNNY   88  78  71 S3        30.14S HX 101
PETER O KNIGHT MOSUNNY   88  75  66 S3        30.14S HX  97
ST PETERSBURG  PTSUNNY   85  75  72 CALM      30.13R
SARASOTA       PTSUNNY   87  73  62 W3        30.12S THUNDER
VENICE         FAIR      84  75  74 W7        30.14S

STATION/POSITION SKY/WX   TEMP    WIND        PRES    WAVE   SWELL
                          AIR SEA DIR/SP/G            HT/PER HT/PER
                          (F)     (DEG/KT/KT) (MB)    (FT/S) (FT/S)
CEDAR KEY                  78     270/  4/  6 1021.4R
28.5N   84.5W              81 84  240/  6/  6 1020.4R   1/ 8
27.3N   84.3W                 85                N/A     1
CLEARWATER BEACH           85 87  280/  3/  3 1020.3R
MIDDLE TAMPA BAY           84     330/  3/  4 1020.7F
VENICE                     83 87  240/  5/  6 1019.8F

$$
FLZ066-069-070-075>078-162-262-165-265-101600-
SOUTHWEST FLORIDA AND KEYS

CITY           SKY/WX    TMP DP  RH WIND       PRES   REMARKS
PUNTA GORDA    PTSUNNY   88  75  65 CALM      30.14F HX  97
FT MYERS       PTSUNNY   85  74  69 S5        30.13R
SOUTHWEST INTL PTSUNNY   83  73  72 S3        30.13S
NAPLES         CLOUDY    85  76  74 SW3       30.12F
MARATHON       MOSUNNY   88  76  67 SE8       30.11S HX  99
KEY WEST NAS   MOSUNNY   89  75  63 E10       30.11S HX  99
KEY WEST INTL  SUNNY     89  75  63 E10       30.11S HX  99

STATION/POSITION SKY/WX   TEMP    WIND        PRES    WAVE   SWELL
                          AIR SEA DIR/SP/G            HT/PER HT/PER
                          (F)     (DEG/KT/KT) (MB)    (FT/S) (FT/S)
VENICE                     83 87  240/  5/  6 1019.8F
NAPLES                     84     230/  3/  5 1020.6R
DRY TORTUGAS               85     130/  9/ 10 1019.8S
NW FL BAY                  85     110/  6/  8 1019.8S
SAND KEY                   84     110/ 12/ 15 1019.5S
SOMBRERO KEY               85     100/ 10/ 10 1020.4R
LONG KEY                   85 88  110/  9/ 10 1020.5R
MOLASSES REEF              84 85  130/  8/  9 1019.9F

$$
FLZ067-068-071>074-168-172>174-101600-
SOUTHEAST FLORIDA

CITY           SKY/WX    TMP DP  RH WIND       PRES   REMARKS
W PALM BEACH   PTSUNNY   79  72  79 E8        30.13S
FT LAUDER-EXEC RAIN      80  75  84 SE14G22   30.14R
FT LAUDERDALE  RAIN      79  73  82 E7        30.13S
POMPANO BEACH  MOSUNNY   87  74  64 SE12      30.14R HX  95
PEMBROKE PINES LGT RAIN  83  75  77 E9        30.15R
OPA LOCKA      LGT RAIN  82  74  76 SE9G22    30.14R
MIAMI          PTSUNNY   85  74  69 SE9       30.13R THUNDER
WEST KENDALL   TSTM      77  70  79 NE8       30.14F
HOMESTEAD      PTSUNNY   81  57  44 E6        30.12F

STATION/POSITION SKY/WX   TEMP    WIND        PRES    WAVE   SWELL
                          AIR SEA DIR/SP/G            HT/PER HT/PER
                          (F)     (DEG/KT/KT) (MB)    (FT/S) (FT/S)
PORT EVERGLADES            78     220/  3/  5 1020.7
VIRGINIA KEY               84 85  150/ 10/ 12   N/A
LAKE WORTH                 80 83              1020.4R
FOWEY ROCKS                84 84  140/ 12/ 12 1020.5R
SETTLEMENT POINT           77     240/  9/ 10 1021.7R

$$



USA.gov is the U.S. government's official web portal to all federal, state and local government web resources and services.